Location: Newark
(36.9436°N, 82.1522°W)
Time: 19:19:19
(UTC+00:00)

Envisat - Visible Passes

Search period start: 13 November 2019 00:00
Search period end: 23 November 2019 00:00
Orbit: 764 x 766 km, 98.1° (Epoch: 13 November)

Date Brightness Start Highest point End Pass type
(mag) Time Alt. Az. Time Alt. Az. Time Alt. Az.
13 Nov 6.0 00:57:54 10° WSW 01:00:21 13° W 01:02:49 10° WNW visible
13 Nov 5.7 11:27:48 10° NE 11:31:57 25° E 11:36:04 10° SSE visible
13 Nov 3.9 22:40:15 10° SE 22:44:26 27° ENE 22:48:38 10° NNE visible
14 Nov 4.8 00:18:49 10° SSW 00:23:18 32° W 00:27:49 10° NW visible
14 Nov 6.6 10:54:31 10° E 10:54:50 10° E 10:55:09 10° E visible
14 Nov 3.2 23:41:22 10° S 23:46:26 75° WSW 23:51:32 10° NNW visible
15 Nov 3.2 23:04:55 10° SE 23:09:45 47° ENE 23:14:37 10° N visible
16 Nov 5.7 00:45:38 10° SW 00:48:58 18° W 00:52:20 10° NW visible
16 Nov 5.9 11:16:58 10° NE 11:20:36 19° E 11:24:12 10° SE visible
17 Nov 4.3 00:07:13 10° SSW 00:11:58 41° W 00:16:46 10° NNW visible
17 Nov 2.9 23:30:06 10° SSE 23:35:10 85° ENE 23:40:16 10° NNW visible
18 Nov 5.0 11:41:37 10° NNE 11:46:15 35° E 11:50:52 10° SSE visible
18 Nov 3.5 22:53:55 10° SE 22:58:32 37° ENE 23:03:10 10° N visible
19 Nov 5.4 00:33:41 10° SW 00:37:37 23° W 00:41:35 10° NW visible
19 Nov 6.1 11:06:21 10° ENE 11:09:13 15° E 11:12:06 10° SE visible
19 Nov 3.8 23:55:44 10° S 00:00:40 52° W 00:05:39 10° NNW visible
20 Nov 2.9 23:18:54 10° SSE 23:23:55 67° ENE 23:28:58 10° N visible
21 Nov 6.1 01:01:24 10° WSW 01:03:21 12° W 01:05:19 10° WNW visible
21 Nov 5.4 11:30:37 10° NE 11:34:56 27° E 11:39:13 10° SSE visible
21 Nov 3.8 22:43:01 10° SE 22:47:21 29° ENE 22:51:41 10° N visible
22 Nov 4.9 00:21:55 10° SSW 00:26:16 29° W 00:30:39 10° NW visible
22 Nov 6.4 10:56:14 10° ENE 10:57:50 11° E 10:59:25 10° ESE visible
22 Nov 3.3 23:44:21 10° S 23:49:23 68° WSW 23:54:27 10° NNW visible
